Zurück zum Katalog

QIANFAN-22

AktivKommunikationPO
NORAD 61555·PAYLOAD·🇨🇳 China

Gestartet Oct 15, 2024 von Taiyuan Satellite Launch Center

Loading…

Nächste Überflüge (nächste 24 Stunden)

TLE

AktuellSource: Space-Track

Epoche: Sep 14, 2026, 13:43 UTC

1 61555U 24185D   26257.57166916  .00000230  00000-0  18700-3 0  9999
2 61555  88.9822  49.0268 0005150 216.3664 143.7158 13.86428408107156

Verfolge QIANFAN-22 in Echtzeit mit AllMySat

Download on the App Store